| time (UTC) | temp F | wind direction | speed MPH | gust MPH | rain 1hr in | rain 24hr in | rain mn in | humidity % | barometer mb |
| 20260506233546 | 49 | 30 | 0.0 | 0.0 | 0.00 | 0.00 | 0.00 | 77 | 1010.6 |
| 20260506233014 | 50 | 34 | 0.0 | 0.0 | 0.00 | 0.00 | 0.00 | 77 | 1010.6 |
| 20260506232503 | 50 | 46 | 0.0 | 0.0 | 0.00 | 0.00 | 0.00 | 76 | 1010.6 |
| 20260506232052 | 51 | 30 | 0.0 | 0.0 | 0.00 | 0.00 | 0.00 | 74 | 1010.5 |
| 20260506231513 | 51 | 20 | 0.0 | 1.0 | 0.00 | 0.00 | 0.00 | 73 | 1010.5 |
| 20260506231102 | 52 | 9 | 0.0 | 1.0 | 0.00 | 0.00 | 0.00 | 71 | 1010.6 |
| 20260506230548 | 53 | 22 | 0.0 | 3.0 | 0.00 | 0.00 | 0.00 | 70 | 1010.5 |
| 20260506230014 | 53 | 24 | 0.0 | 3.0 | 0.00 | 0.00 | 0.00 | 68 | 1010.5 |
| 20260506225502 | 54 | 39 | 0.0 | 3.0 | 0.00 | 0.00 | 0.00 | 66 | 1010.5 |
| 20260506225053 | 54 | 279 | 0.0 | 5.0 | 0.00 | 0.00 | 0.00 | 66 | 1010.5 |
| 20260506224522 | 54 | 250 | 1.0 | 5.0 | 0.00 | 0.00 | 0.00 | 66 | 1010.5 |
| 20260506224010 | 54 | 332 | 0.0 | 3.0 | 0.00 | 0.00 | 0.00 | 68 | 1010.5 |
| 20260506223604 | 53 | 360 | 0.0 | 2.0 | 0.00 | 0.00 | 0.00 | 68 | 1010.6 |
| 20260506223019 | 54 | 40 | 0.0 | 3.0 | 0.00 | 0.00 | 0.00 | 69 | 1010.6 |
| 20260506222508 | 53 | 348 | 0.0 | 3.0 | 0.00 | 0.00 | 0.00 | 67 | 1010.7 |
| 20260506222059 | 54 | 323 | 0.0 | 1.0 | 0.00 | 0.00 | 0.00 | 68 | 1010.7 |
| 20260506221528 | 54 | 13 | 0.0 | 2.0 | 0.00 | 0.00 | 0.00 | 67 | 1010.7 |
| 20260506221016 | 54 | 19 | 0.0 | 3.0 | 0.00 | 0.00 | 0.00 | 67 | 1010.8 |
| 20260506220505 | 54 | 5 | 0.0 | 3.0 | 0.00 | 0.00 | 0.00 | 66 | 1010.8 |
| 20260506220025 | 53 | 342 | 0.0 | 2.0 | 0.00 | 0.00 | 0.00 | 67 | 1010.8 |
| 20260506215514 | 52 | 344 | 0.0 | 2.0 | 0.00 | 0.00 | 0.00 | 69 | 1010.8 |
| 20260506215002 | 52 | 360 | 0.0 | 3.0 | 0.00 | 0.00 | 0.00 | 70 | 1010.7 |
| 20260506214524 | 51 | 9 | 1.0 | 5.0 | 0.00 | 0.00 | 0.00 | 71 | 1010.7 |
| 20260506214012 | 51 | 322 | 0.0 | 5.0 | 0.00 | 0.00 | 0.00 | 72 | 1010.7 |
| 20260506213500 | 51 | 32 | 0.0 | 2.0 | 0.00 | 0.00 | 0.00 | 73 | 1010.7 |
| 20260506213021 | 51 | 30 | 0.0 | 2.0 | 0.00 | 0.00 | 0.00 | 72 | 1010.7 |
| 20260506212509 | 51 | 28 | 0.0 | 3.0 | 0.00 | 0.00 | 0.00 | 71 | 1010.6 |
| 20260506212100 | 51 | 44 | 1.0 | 3.0 | 0.00 | 0.00 | 0.00 | 70 | 1010.6 |
| 20260506211535 | 51 | 31 | 0.0 | 3.0 | 0.00 | 0.00 | 0.00 | 73 | 1010.5 |
| 20260506211008 | 51 | 22 | 1.0 | 3.0 | 0.00 | 0.00 | 0.00 | 74 | 1010.5 |
| 20260506210559 | 51 | 32 | 0.0 | 1.0 | 0.00 | 0.00 | 0.00 | 73 | 1010.6 |
| 20260506210029 | 52 | 34 | 0.0 | 1.0 | 0.00 | 0.00 | 0.00 | 73 | 1010.5 |
| 20260506205503 | 52 | 36 | 0.0 | 0.0 | 0.00 | 0.00 | 0.00 | 74 | 1010.5 |
| 20260506205054 | 52 | 46 | 0.0 | 0.0 | 0.00 | 0.00 | 0.00 | 74 | 1010.4 |
| 20260506204516 | 52 | 34 | 0.0 | 0.0 | 0.00 | 0.00 | 0.00 | 73 | 1010.5 |
| 20260506204002 | 52 | 40 | 0.0 | 0.0 | 0.00 | 0.00 | 0.00 | 73 | 1010.5 |
| 20260506203552 | 52 | 26 | 0.0 | 0.0 | 0.00 | 0.00 | 0.00 | 73 | 1010.4 |
| 20260506203019 | 52 | 5 | 0.0 | 0.0 | 0.00 | 0.00 | 0.00 | 72 | 1010.4 |
| 20260506202507 | 52 | 54 | 0.0 | 0.0 | 0.00 | 0.00 | 0.00 | 72 | 1010.4 |
| 20260506202058 | 53 | 54 | 0.0 | 0.0 | 0.00 | 0.00 | 0.00 | 72 | 1010.2 |
| 20260506201517 | 53 | 59 | 0.0 | 0.0 | 0.00 | 0.00 | 0.00 | 72 | 1010.2 |
| 20260506201008 | 53 | 59 | 0.0 | 1.0 | 0.00 | 0.00 | 0.00 | 71 | 1010.2 |
| 20260506200555 | 53 | 54 | 0.0 | 1.0 | 0.00 | 0.00 | 0.00 | 70 | 1010.2 |
| 20260506200014 | 53 | 19 | 0.0 | 3.0 | 0.00 | 0.00 | 0.00 | 72 | 1010.2 |
| 20260506195504 | 53 | 28 | 1.0 | 3.0 | 0.00 | 0.00 | 0.00 | 69 | 1010.2 |
| 20260506195053 | 54 | 32 | 0.0 | 3.0 | 0.00 | 0.00 | 0.00 | 68 | 1010.1 |
| 20260506194511 | 54 | 19 | 1.0 | 3.0 | 0.00 | 0.00 | 0.00 | 66 | 1010.1 |
| 20260506194105 | 54 | 44 | 0.0 | 1.0 | 0.00 | 0.00 | 0.00 | 66 | 1010.1 |
| 20260506193551 | 55 | 31 | 0.0 | 2.0 | 0.00 | 0.00 | 0.00 | 67 | 1010.0 |
| 20260506193009 | 56 | 63 | 0.0 | 3.0 | 0.00 | 0.00 | 0.00 | 63 | 1010.0 |
| 20260506192559 | 56 | 28 | 1.0 | 2.0 | 0.00 | 0.00 | 0.00 | 61 | 1009.9 |
| 20260506192048 | 57 | 13 | 0.0 | 2.0 | 0.00 | 0.00 | 0.00 | 60 | 1009.9 |
| 20260506191517 | 59 | 19 | 0.0 | 2.0 | 0.00 | 0.00 | 0.00 | 59 | 1009.9 |
| 20260506191005 | 60 | 13 | 0.0 | 2.0 | 0.00 | 0.00 | 0.00 | 57 | 1009.9 |
| 20260506190557 | 61 | 30 | 0.0 | 2.0 | 0.00 | 0.00 | 0.00 | 56 | 1009.9 |
| 20260506190014 | 63 | 5 | 0.0 | 2.0 | 0.00 | 0.00 | 0.00 | 54 | 1009.9 |
| 20260506185502 | 63 | 311 | 0.0 | 0.0 | 0.00 | 0.00 | 0.00 | 47 | 1009.8 |
| 20260506185052 | 64 | 5 | 0.0 | 0.0 | 0.00 | 0.00 | 0.00 | 46 | 1009.9 |
| 20260506184525 | 64 | 56 | 0.0 | 2.0 | 0.00 | 0.00 | 0.00 | 44 | 1009.9 |
| 20260506184011 | 65 | 26 | 0.0 | 6.0 | 0.00 | 0.00 | 0.00 | 42 | 1009.9 |
| 20260506183601 | 65 | 51 | 1.0 | 6.0 | 0.00 | 0.00 | 0.00 | 42 | 1009.9 |
| 20260506183017 | 66 | 152 | 0.0 | 2.0 | 0.00 | 0.00 | 0.00 | 41 | 1009.9 |
| 20260506182505 | 66 | 211 | 0.0 | 2.0 | 0.00 | 0.00 | 0.00 | 40 | 1009.9 |
| 20260506182056 | 67 | 167 | 0.0 | 2.0 | 0.00 | 0.00 | 0.00 | 38 | 1009.9 |
| 20260506181533 | 67 | 121 | 0.0 | 2.0 | 0.00 | 0.00 | 0.00 | 37 | 1010.0 |
| 20260506181003 | 67 | 64 | 0.0 | 1.0 | 0.00 | 0.00 | 0.00 | 37 | 1009.9 |
| 20260506180557 | 67 | 73 | 0.0 | 1.0 | 0.00 | 0.00 | 0.00 | 37 | 1010.0 |
| 20260506180019 | 67 | 73 | 0.0 | 1.0 | 0.00 | 0.00 | 0.00 | 38 | 1010.0 |
| 20260506175511 | 67 | 83 | 0.0 | 2.0 | 0.00 | 0.00 | 0.00 | 39 | 1010.0 |
| 20260506175057 | 67 | 98 | 0.0 | 2.0 | 0.00 | 0.00 | 0.00 | 38 | 1010.0 |
| 20260506174533 | 67 | 326 | 0.0 | 2.0 | 0.00 | 0.00 | 0.00 | 39 | 1010.1 |
| 20260506174021 | 67 | 65 | 0.0 | 2.0 | 0.00 | 0.00 | 0.00 | 39 | 1010.1 |
| 20260506173508 | 67 | 96 | 0.0 | 3.0 | 0.00 | 0.00 | 0.00 | 40 | 1010.1 |
| 20260506173047 | 67 | 38 | 0.0 | 4.0 | 0.00 | 0.00 | 0.00 | 39 | 1010.2 |
| 20260506172513 | 67 | 5 | 1.0 | 4.0 | 0.00 | 0.00 | 0.00 | 42 | 1010.2 |
| 20260506172003 | 67 | 95 | 1.0 | 4.0 | 0.00 | 0.00 | 0.00 | 39 | 1010.3 |
| 20260506171528 | 67 | 157 | 0.0 | 4.0 | 0.00 | 0.00 | 0.00 | 38 | 1010.3 |
| 20260506171012 | 67 | 180 | 0.0 | 4.0 | 0.00 | 0.00 | 0.00 | 40 | 1010.3 |
| 20260506170603 | 66 | 320 | 0.0 | 3.0 | 0.00 | 0.00 | 0.00 | 41 | 1010.3 |
| 20260506170020 | 66 | 271 | 0.0 | 3.0 | 0.00 | 0.08 | 0.00 | 41 | 1010.4 |
| 20260506165508 | 66 | 321 | 1.0 | 3.0 | 0.00 | 0.08 | 0.00 | 43 | 1010.4 |
| 20260506165058 | 66 | 315 | 1.0 | 3.0 | 0.00 | 0.08 | 0.00 | 42 | 1010.4 |
| 20260506164518 | 65 | 355 | 0.0 | 4.0 | 0.00 | 0.08 | 0.00 | 46 | 1010.5 |
| 20260506164005 | 65 | 360 | 1.0 | 4.0 | 0.00 | 0.08 | 0.00 | 46 | 1010.5 |
| 20260506163556 | 64 | 77 | 0.0 | 2.0 | 0.00 | 0.08 | 0.00 | 46 | 1010.5 |
| 20260506163028 | 64 | 325 | 0.0 | 1.0 | 0.00 | 0.08 | 0.00 | 48 | 1010.6 |
| 20260506162512 | 63 | 325 | 0.0 | 2.0 | 0.00 | 0.08 | 0.00 | 49 | 1010.7 |
| 20260506162001 | 63 | 325 | 0.0 | 3.0 | 0.00 | 0.08 | 0.00 | 45 | 1010.6 |
| 20260506161523 | 64 | 338 | 0.0 | 2.0 | 0.00 | 0.08 | 0.00 | 47 | 1010.7 |
| 20260506161013 | 64 | 315 | 0.0 | 2.0 | 0.00 | 0.08 | 0.00 | 45 | 1010.7 |
| 20260506160601 | 64 | 315 | 0.0 | 2.0 | 0.00 | 0.08 | 0.00 | 44 | 1010.7 |
| 20260506160015 | 64 | 163 | 0.0 | 3.0 | 0.00 | 0.08 | 0.00 | 48 | 1010.9 |
| 20260506155502 | 64 | 142 | 1.0 | 3.0 | 0.00 | 0.08 | 0.00 | 44 | 1010.9 |
| 20260506155057 | 64 | 130 | 0.0 | 2.0 | 0.00 | 0.08 | 0.00 | 44 | 1010.9 |
| 20260506154523 | 64 | 355 | 0.0 | 2.0 | 0.00 | 0.08 | 0.00 | 44 | 1010.9 |
| 20260506154012 | 64 | 74 | 0.0 | 2.0 | 0.00 | 0.08 | 0.00 | 44 | 1011.0 |
| 20260506153602 | 64 | 316 | 0.0 | 4.0 | 0.00 | 0.08 | 0.00 | 44 | 1010.9 |
| 20260506153023 | 65 | 256 | 1.0 | 5.0 | 0.00 | 0.08 | 0.00 | 45 | 1011.0 |
| 20260506152508 | 65 | 223 | 2.0 | 4.0 | 0.00 | 0.08 | 0.00 | 45 | 1011.1 |
| 20260506152101 | 65 | 313 | 0.0 | 3.0 | 0.00 | 0.08 | 0.00 | 45 | 1011.1 |
| 20260506151515 | 65 | 219 | 0.0 | 4.0 | 0.00 | 0.08 | 0.00 | 44 | 1011.1 |
| 20260506151004 | 65 | 184 | 2.0 | 7.0 | 0.00 | 0.08 | 0.00 | 46 | 1011.1 |
| 20260506150555 | 66 | 194 | 3.0 | 7.0 | 0.00 | 0.08 | 0.00 | 43 | 1011.3 |
| 20260506150016 | 67 | 173 | 3.0 | 7.0 | 0.00 | 0.11 | 0.00 | 44 | 1011.2 |
| 20260506145502 | 67 | 246 | 2.0 | 6.0 | 0.00 | 0.11 | 0.00 | 44 | 1011.3 |
| 20260506145052 | 67 | 124 | 1.0 | 8.0 | 0.00 | 0.11 | 0.00 | 43 | 1011.4 |
| 20260506144514 | 67 | 264 | 3.0 | 7.0 | 0.00 | 0.11 | 0.00 | 43 | 1011.5 |
| 20260506144105 | 66 | 185 | 3.0 | 6.0 | 0.00 | 0.11 | 0.00 | 45 | 1011.6 |
| 20260506143549 | 66 | 94 | 0.0 | 6.0 | 0.00 | 0.11 | 0.00 | 43 | 1011.8 |
| 20260506143023 | 65 | 210 | 1.0 | 7.0 | 0.00 | 0.11 | 0.00 | 45 | 1011.8 |
| 20260506142503 | 66 | 182 | 2.0 | 7.0 | 0.00 | 0.11 | 0.00 | 45 | 1012.0 |
| 20260506142052 | 66 | 206 | 1.0 | 13.0 | 0.00 | 0.11 | 0.00 | 45 | 1012.0 |
| 20260506141513 | 67 | 192 | 6.0 | 13.0 | 0.00 | 0.11 | 0.00 | 44 | 1012.1 |
| 20260506141001 | 67 | 240 | 2.0 | 10.0 | 0.00 | 0.11 | 0.00 | 45 | 1012.1 |
| 20260506140555 | 67 | 205 | 0.0 | 7.0 | 0.00 | 0.11 | 0.00 | 47 | 1012.1 |
| 20260506140017 | 66 | 186 | 2.0 | 9.0 | 0.00 | 0.11 | 0.00 | 45 | 1012.2 |
| 20260506135600 | 66 | 177 | 5.0 | 9.0 | 0.00 | 0.11 | 0.00 | 46 | 1012.3 |
| 20260506135049 | 66 | 186 | 1.0 | 10.0 | 0.00 | 0.11 | 0.00 | 47 | 1012.3 |
| 20260506134517 | 65 | 219 | 3.0 | 7.0 | 0.00 | 0.11 | 0.00 | 50 | 1012.5 |
| 20260506134005 | 64 | 146 | 1.0 | 4.0 | 0.00 | 0.11 | 0.00 | 49 | 1012.6 |
| 20260506133556 | 64 | 84 | 0.0 | 7.0 | 0.00 | 0.11 | 0.00 | 50 | 1012.6 |
| 20260506133013 | 64 | 167 | 2.0 | 10.0 | 0.00 | 0.11 | 0.00 | 49 | 1012.7 |
| 20260506132503 | 65 | 227 | 4.0 | 9.0 | 0.00 | 0.11 | 0.00 | 50 | 1012.7 |
| 20260506132053 | 64 | 196 | 1.0 | 4.0 | 0.00 | 0.11 | 0.00 | 52 | 1012.8 |
| 20260506131520 | 62 | 221 | 0.0 | 5.0 | 0.00 | 0.11 | 0.00 | 56 | 1012.8 |
| 20260506131011 | 62 | 345 | 1.0 | 5.0 | 0.00 | 0.11 | 0.00 | 54 | 1012.9 |
| 20260506130558 | 62 | 333 | 1.0 | 5.0 | 0.00 | 0.11 | 0.00 | 58 | 1012.9 |
| 20260506130016 | 61 | 335 | 2.0 | 5.0 | 0.00 | 0.17 | 0.00 | 59 | 1013.0 |
| 20260506125504 | 61 | 355 | 0.0 | 2.0 | 0.00 | 0.17 | 0.00 | 57 | 1012.9 |
| 20260506125054 | 61 | 334 | 0.0 | 3.0 | 0.00 | 0.17 | 0.00 | 57 | 1013.1 |
| 20260506124514 | 61 | 219 | 0.0 | 4.0 | 0.00 | 0.17 | 0.00 | 58 | 1013.2 |
| 20260506124003 | 61 | 229 | 2.0 | 5.0 | 0.00 | 0.17 | 0.00 | 58 | 1013.2 |
| 20260506123554 | 61 | 326 | 2.0 | 6.0 | 0.00 | 0.17 | 0.00 | 57 | 1013.2 |
| 20260506123011 | 61 | 315 | 0.0 | 6.0 | 0.00 | 0.17 | 0.00 | 55 | 1013.3 |
| 20260506122604 | 61 | 53 | 0.0 | 4.0 | 0.00 | 0.17 | 0.00 | 57 | 1013.4 |
| 20260506122050 | 61 | 322 | 0.0 | 3.0 | 0.00 | 0.17 | 0.00 | 54 | 1013.6 |
| 20260506121510 | 61 | 246 | 0.0 | 3.0 | 0.00 | 0.17 | 0.00 | 56 | 1013.5 |
| 20260506121100 | 61 | 251 | 1.0 | 7.0 | 0.00 | 0.17 | 0.00 | 56 | 1013.6 |
| 20260506120549 | 61 | 180 | 2.0 | 7.0 | 0.00 | 0.17 | 0.00 | 58 | 1013.6 |
| 20260506120015 | 61 | 125 | 1.0 | 10.0 | 0.00 | 0.17 | 0.00 | 57 | 1013.8 |
| 20260506115504 | 62 | 167 | 5.0 | 11.0 | 0.00 | 0.17 | 0.00 | 59 | 1013.7 |
| 20260506115055 | 61 | 71 | 0.0 | 5.0 | 0.00 | 0.17 | 0.00 | 63 | 1013.8 |
| 20260506114514 | 60 | 124 | 1.0 | 5.0 | 0.00 | 0.17 | 0.00 | 61 | 1013.7 |
| 20260506114003 | 59 | 5 | 0.0 | 3.0 | 0.00 | 0.17 | 0.00 | 61 | 1013.9 |
| 20260506113552 | 59 | 333 | 0.0 | 3.0 | 0.00 | 0.17 | 0.00 | 66 | 1014.0 |
| 20260506113021 | 59 | 5 | 0.0 | 3.0 | 0.00 | 0.17 | 0.00 | 65 | 1014.0 |
| 20260506112509 | 58 | 143 | 1.0 | 3.0 | 0.00 | 0.17 | 0.00 | 65 | 1014.2 |
| 20260506112104 | 58 | 245 | 0.0 | 2.0 | 0.00 | 0.17 | 0.00 | 68 | 1014.2 |
| 20260506111520 | 58 | 169 | 0.0 | 2.0 | 0.00 | 0.17 | 0.00 | 67 | 1014.2 |
| 20260506111008 | 58 | 169 | 0.0 | 3.0 | 0.00 | 0.17 | 0.00 | 67 | 1014.4 |
| 20260506110559 | 57 | 220 | 0.0 | 4.0 | 0.00 | 0.17 | 0.00 | 69 | 1014.3 |
| 20260506110017 | 57 | 186 | 1.0 | 4.0 | 0.00 | 0.17 | 0.00 | 68 | 1014.4 |
| 20260506105505 | 57 | 110 | 0.0 | 2.0 | 0.00 | 0.17 | 0.00 | 69 | 1014.4 |
| 20260506105056 | 57 | 111 | 0.0 | 3.0 | 0.00 | 0.17 | 0.00 | 68 | 1014.4 |
| 20260506104550 | 56 | 43 | 0.0 | 3.0 | 0.00 | 0.17 | 0.00 | 70 | 1014.5 |
| 20260506104009 | 56 | 343 | 0.0 | 3.0 | 0.00 | 0.17 | 0.00 | 72 | 1014.5 |
| 20260506103559 | 55 | 226 | 0.0 | 4.0 | 0.00 | 0.17 | 0.00 | 73 | 1014.5 |
| 20260506103017 | 55 | 227 | 1.0 | 5.0 | 0.00 | 0.17 | 0.00 | 73 | 1014.6 |
| 20260506102506 | 55 | 260 | 2.0 | 5.0 | 0.00 | 0.17 | 0.00 | 74 | 1014.6 |
| 20260506102057 | 55 | 252 | 0.0 | 2.0 | 0.00 | 0.17 | 0.00 | 75 | 1014.6 |
| 20260506101517 | 54 | 257 | 0.0 | 4.0 | 0.00 | 0.17 | 0.00 | 75 | 1014.7 |
| 20260506101004 | 55 | 325 | 0.0 | 4.0 | 0.00 | 0.17 | 0.00 | 74 | 1014.5 |
| 20260506100556 | 55 | 309 | 1.0 | 3.0 | 0.00 | 0.17 | 0.00 | 75 | 1014.5 |
| 20260506100014 | 55 | 5 | 0.0 | 2.0 | 0.00 | 0.17 | 0.00 | 75 | 1014.6 |
| 20260506095502 | 55 | 311 | 0.0 | 3.0 | 0.00 | 0.17 | 0.00 | 75 | 1014.6 |
| 20260506095052 | 55 | 333 | 0.0 | 3.0 | 0.00 | 0.17 | 0.00 | 75 | 1014.6 |
| 20260506094532 | 55 | 13 | 0.0 | 2.0 | 0.00 | 0.17 | 0.00 | 76 | 1014.6 |
| 20260506094014 | 54 | 340 | 0.0 | 1.0 | 0.00 | 0.17 | 0.00 | 75 | 1014.5 |
| 20260506093604 | 54 | 140 | 0.0 | 2.0 | 0.00 | 0.17 | 0.00 | 75 | 1014.6 |
| 20260506093020 | 54 | 140 | 0.0 | 4.0 | 0.00 | 0.17 | 0.00 | 75 | 1014.6 |
| 20260506092508 | 54 | 200 | 1.0 | 4.0 | 0.00 | 0.17 | 0.00 | 77 | 1014.6 |
| 20260506092059 | 54 | 186 | 0.0 | 3.0 | 0.00 | 0.17 | 0.00 | 76 | 1014.6 |
| 20260506091519 | 54 | 184 | 2.0 | 4.0 | 0.00 | 0.17 | 0.00 | 74 | 1014.6 |
| 20260506091010 | 54 | 196 | 2.0 | 4.0 | 0.00 | 0.17 | 0.00 | 74 | 1014.5 |
| 20260506090557 | 54 | 348 | 0.0 | 4.0 | 0.00 | 0.17 | 0.00 | 74 | 1014.5 |
| 20260506090028 | 53 | 184 | 2.0 | 4.0 | 0.00 | 0.17 | 0.00 | 76 | 1014.6 |
| 20260506085514 | 53 | 336 | 0.0 | 1.0 | 0.00 | 0.17 | 0.00 | 77 | 1014.5 |
| 20260506085002 | 53 | 288 | 0.0 | 2.0 | 0.00 | 0.17 | 0.00 | 79 | 1014.5 |
| 20260506084524 | 53 | 171 | 0.0 | 2.0 | 0.00 | 0.17 | 0.00 | 78 | 1014.6 |
| 20260506084014 | 53 | 207 | 0.0 | 2.0 | 0.00 | 0.17 | 0.00 | 80 | 1014.6 |
| 20260506083600 | 52 | 207 | 0.0 | 2.0 | 0.00 | 0.17 | 0.00 | 80 | 1014.6 |
| 20260506083034 | 52 | 163 | 0.0 | 0.0 | 0.00 | 0.17 | 0.00 | 82 | 1014.6 |
| 20260506082505 | 52 | 163 | 0.0 | 1.0 | 0.00 | 0.17 | 0.00 | 81 | 1014.6 |
| 20260506082056 | 52 | 163 | 0.0 | 2.0 | 0.00 | 0.17 | 0.00 | 81 | 1014.7 |
| 20260506081514 | 52 | 164 | 0.0 | 3.0 | 0.00 | 0.17 | 0.00 | 81 | 1014.7 |
| 20260506081003 | 52 | 174 | 1.0 | 3.0 | 0.00 | 0.17 | 0.00 | 82 | 1014.7 |
| 20260506080554 | 52 | 205 | 0.0 | 3.0 | 0.00 | 0.17 | 0.00 | 80 | 1014.7 |
| 20260506073016 | 50 | 147 | 0.0 | 1.0 | 0.00 | 0.17 | 0.00 | 82 | 1014.5 |
| 20260506072505 | 50 | 126 | 0.0 | 0.0 | 0.00 | 0.17 | 0.00 | 83 | 1014.6 |
| 20260506072054 | 49 | 126 | 0.0 | 0.0 | 0.00 | 0.17 | 0.00 | 85 | 1014.7 |
| 20260506071514 | 49 | 126 | 0.0 | 1.0 | 0.00 | 0.17 | 0.00 | 85 | 1014.5 |
| 20260506071001 | 48 | 126 | 0.0 | 1.0 | 0.00 | 0.17 | 0.00 | 87 | 1014.5 |
| 20260506070552 | 48 | 126 | 0.0 | 1.0 | 0.00 | 0.17 | 0.00 | 88 | 1014.5 |